Location: Chin
(49.7667°N, 112.4500°W)
Time: 21:35:41
(UTC+00:00)

N. Korean satellite - Visible Passes

Search period start: 02 December 2021 00:00
Search period end: 12 December 2021 00:00
Orbit: 447 x 495 km, 97.3° (Epoch: 02 December)

Date Brightness Start Highest point End Pass type
(mag) Time Alt. Az. Time Alt. Az. Time Alt. Az.
02 Dec 9.5 00:45:04 10° SW 00:47:46 20° W 00:50:26 10° NW visible
02 Dec 9.0 12:05:04 10° NE 12:07:43 21° E 12:10:22 10° SE visible
02 Dec 7.2 13:37:59 10° N 13:40:57 29° WNW 13:43:55 10° SW visible
03 Dec 8.1 00:15:45 10° S 00:19:07 41° W 00:22:28 10° NNW visible
03 Dec 10.0 11:38:29 10° E 11:38:57 10° E 11:39:25 10° E visible
03 Dec 6.3 13:09:12 10° N 13:12:34 62° WNW 13:15:54 10° SSW visible
04 Dec 7.0 12:40:41 10° NNE 12:44:03 56° E 12:47:22 10° S visible
04 Dec 8.3 14:15:16 10° NW 14:16:49 13° WNW 14:18:22 10° W visible
05 Dec 9.7 00:53:10 10° SW 00:55:29 17° W 00:57:48 10° NW visible
05 Dec 8.7 12:12:31 10° NE 12:15:25 25° E 12:18:16 10° SSE visible
05 Dec 7.5 13:45:45 10° NNW 13:48:32 24° WNW 13:51:19 10° WSW visible
06 Dec 8.5 00:23:33 10° SSW 00:26:46 33° W 00:29:58 10° NNW visible
06 Dec 9.7 11:45:06 10° ENE 11:46:38 12° E 11:48:10 10° ESE visible
06 Dec 6.5 13:16:51 10° N 13:20:09 50° WNW 13:23:25 10° SSW visible
07 Dec 6.6 12:48:13 10° NNE 12:51:37 71° ESE 12:54:59 10° S visible
07 Dec 8.4 14:23:29 10° NW 14:24:18 11° WNW 14:25:07 10° WNW visible
08 Dec 9.8 01:01:18 10° WSW 01:03:07 14° W 01:04:57 10° WNW visible
08 Dec 8.3 12:19:55 10° NNE 12:22:59 31° E 12:26:02 10° SSE visible
08 Dec 7.7 13:53:28 10° NNW 13:56:01 20° WNW 13:58:33 10° WSW visible
09 Dec 8.9 00:31:20 10° SSW 00:34:21 27° W 00:37:21 10° NW visible
09 Dec 9.5 11:52:09 10° NE 11:54:13 15° E 11:56:17 10° SE visible
09 Dec 6.8 13:24:25 10° N 13:27:37 40° WNW 13:30:49 10° SW visible
10 Dec 7.2 00:02:14 10° S 00:05:41 59° W 00:09:06 10° NNW visible
10 Dec 7.2 12:55:41 10° NNE 13:00:16 39° SSW 13:02:30 10° SSW visible
11 Dec 10.0 01:09:37 10° WSW 01:10:39 11° W 01:11:42 10° WNW visible
11 Dec 8.5 12:27:15 10° NNE 12:32:05 23° SSE 12:33:39 10° SSE visible
11 Dec 8.4 14:01:07 10° NNW 14:06:11 - WSW 14:01:54 13° NNW visible
